Volver al catálogo

CZ-6A DEB

ActivoPO
NORAD 64652·DEBRIS·🇨🇳 China

Lanzado Aug 6, 2024 desde Taiyuan Satellite Launch Center

Loading…

Próximos Pases (próximas 24 horas)

TLE

ActualizadoSource: Space-Track

Época: Sep 14, 2026, 09:54 UTC

1 64652U 24140AES 26257.41299474  .00001716  00000-0  48989-3 0  9992
2 64652  88.9106 253.3462 0053650  26.3857 334.0060 14.43935198101906

Sigue CZ-6A DEB en tiempo real con AllMySat

Download on the App Store